[Iaude] MPEC S149: 2023 SX3 [a=2.16,e=0.43,i=3.9,H=23.9]

mpec at marsden.cfa.harvard.edu mpec at marsden.cfa.harvard.edu
Thu Sep 21 12:21:40 EDT 2023


M.P.E.C. 2023-S149                           Issued 2023 September 21, 16:20 UT

     The Minor Planet Electronic Circulars contain information on unusual
         minor planets, routine data on comets and natural satellites,
         and occasional editorial announcements.  They are published
    on behalf of Division F of the International Astronomical Union by the
          Minor Planet Center, Smithsonian Astrophysical Observatory,
                          Cambridge, MA 02138, U.S.A.
			  
             Prepared using the Tamkin Foundation Computer Network

                              MPC at CFA.HARVARD.EDU
            URL https://www.minorplanetcenter.net/    ISSN 1523-6714

                                    2023 SX3                                    


Observations:
     K23S03X* C2023 09 16.32615922 05 54.609+06 51 28.23         22.32wXES149F51
     K23S03X  C2023 09 16.33980222 05 55.530+06 51 27.74         22.91wXES149F51
     K23S03X  C2023 09 16.36715922 05 57.388+06 51 26.68         22.20wXES149F51
     K23S03X 3C2023 09 17.23468322 07 10.690+06 50 48.20         22.27GVES149T14
     K23S03X 3C2023 09 17.23589022 07 10.781+06 50 48.17         22.27GVES149T14
     K23S03X 3C2023 09 17.23709922 07 10.869+06 50 48.12         22.16GVES149T14
     K23S03X 3C2023 09 17.23830822 07 10.959+06 50 48.08         22.20GVES149T14
     K23S03X 3C2023 09 18.51685222 08 57.445+06 49 27.23         22.26GVES149T14
     K23S03X 3C2023 09 18.51806022 08 57.540+06 49 27.12         22.11GVES149T14
     K23S03X 3C2023 09 18.51926922 08 57.640+06 49 26.97         22.35GVES149T14
     K23S03X 3C2023 09 18.52047822 08 57.737+06 49 26.83         22.32GVES149T14
     K23S03X KC2023 09 20.11853822 11 24.62 +06 46 58.9          22.2 VuES149H21
     K23S03X KC2023 09 20.12895022 11 25.46 +06 46 58.1          22.2 VuES149H21
     K23S03X KC2023 09 20.13382522 11 25.85 +06 46 57.5          21.7 VuES149H21

Observer details:
F51 Pan-STARRS 1, Haleakala.  Observers J. Bulger, T. Lowe, P. Minguez, A.
    Schultz, I. Smith.  Measurers K. Chambers, T. de Boer, J. Bulger, J.
    Fairlamb, H. Gao, M. Huber, C.-C. Lin, T. Lowe, E. Magnier, P. Minguez, Y.
    Ramanjooloo, A. Schultz, I. Smith, R. Wainscoat, R. Weryk.  1.8-m Ritchey-
    Chretien + CCD.
H21 Astronomical Research Observatory, Westfield.  Observer R. Holmes.
    Measurers T. Linder, R. Holmes, L. Horn.  1.3-m f/4.0 astrograph + CCD.
T14 Canada-France-Hawaii Telescope, Maunakea.  Observers R. Wainscoat, H.
    Januszewski, H. Flewelling.  Measurers R. Weryk, R. Wainscoat.  3.6-m
    Canada-France-Hawaii Telescope + CCD.

Orbital elements:
2023 SX3                                                 Earth MOID = 0.2369 AU
Epoch 2023 Sept. 13.0 TT = JDT 2460200.5                Bell                    
M 355.04565              (2000.0)            P               Q                  
n   0.31118905     Peri.  128.04056     +0.99853091     -0.00600255             
a   2.1566840      Node   232.36808     -0.01373782     +0.93332743             
e   0.4283963      Incl.    3.89905     +0.05241467     +0.35897616             
P   3.17           H   23.97          G   0.15           U   8                  
Residuals in seconds of arc
230916 F51  0.0   0.2+    230917 T14  0.0   0.0     230918 T14  0.0   0.0
230916 F51  0.1-  0.1+    230917 T14  0.0   0.0     230920 H21  0.2+  0.3+
230916 F51  0.1+  0.1-    230918 T14  0.0   0.0     230920 H21  0.0   0.5+
230917 T14  0.0   0.0     230918 T14  0.0   0.0     230920 H21  0.1-  0.3+
230917 T14  0.0   0.0     230918 T14  0.0   0.0

Ephemeris:
2023 SX3                 a,e,i = 2.16, 0.43, 4                   q = 1.2328
Date    TT    R. A. (2000) Decl.     Delta      r    Elong.  Phase     V
2023 08 22    21 45 10.3 +05 05 34   0.2893  1.2903   162.4    13.7    22.6
...
2023 09 06    21 54 29.2 +06 38 37   0.2593  1.2543   159.5    16.3    22.4
...
2023 09 14    22 02 53.2 +06 52 04   0.2522  1.2420   156.8    18.6    22.4
...
2023 09 20    22 11 13.0 +06 47 29   0.2509  1.2361   154.7    20.3    22.4
2023 09 21    22 12 46.9 +06 45 44   0.2510  1.2354   154.4    20.6    22.4
2023 09 22    22 14 24.0 +06 43 44   0.2512  1.2348   154.0    20.9    22.5
...
2023 09 28    22 25 07.8 +06 27 39   0.2545  1.2328   152.0    22.4    22.5
...
2023 10 06    22 41 50.0 +05 59 30   0.2643  1.2349   149.4    24.3    22.7
...
2023 10 21    23 18 09.5 +05 11 32   0.3009  1.2528   144.4    27.5    23.1

M. P. C. Staff               (C) Copyright 2023 MPC           M.P.E.C. 2023-S149





More information about the Iaude mailing list